Location: Unspecified
(0.0000°N, 0.0000°E)
Time: 08:41:17
(UTC+02:00)

NOAA 12 - Visible Passes

Search period start: 17 April 2014 00:00
Search period end: 27 April 2014 00:00
Orbit: 796 x 817 km, 98.7° (Epoch: 16 April)

Date Brightness Start Highest point End Pass type
(mag) Time Alt. Az. Time Alt. Az. Time Alt. Az.
17 Apr 5.0 20:32:00 10° SE 20:36:26 28° ENE 20:40:51 10° NNE visible
17 Apr 6.6 22:12:29 10° SW 22:15:57 18° WSW 22:19:25 10° WNW visible
18 Apr 5.5 21:46:29 10° SSW 21:51:15 35° WSW 21:55:58 10° NW visible
19 Apr 4.3 21:21:18 10° S 21:26:32 72° WSW 21:31:43 10° NNW visible
20 Apr 4.1 20:56:39 10° SSE 21:01:48 57° ENE 21:06:54 10° N visible
21 Apr 4.9 20:32:36 10° SE 20:37:04 29° ENE 20:41:30 10° NNE visible
21 Apr 6.6 22:13:10 10° SW 22:16:35 18° WSW 22:19:59 10° WNW visible
22 Apr 5.5 21:47:09 10° SSW 21:51:52 35° WSW 21:56:34 10° NW visible
23 Apr 4.3 21:21:56 10° S 21:27:09 70° WSW 21:32:20 10° NNW visible
24 Apr 4.1 20:57:16 10° SSE 21:02:25 58° ENE 21:07:31 10° N visible
25 Apr 4.9 20:33:13 10° SE 20:37:41 29° ENE 20:42:08 10° NNE visible
25 Apr 6.6 22:13:51 10° SW 22:17:12 17° WSW 22:20:33 10° WNW visible
26 Apr 5.6 21:47:48 10° SSW 21:52:30 34° WSW 21:57:10 10° NW visible
